Location: La Tine
(46.4708°N, 7.0525°E)
Time: 15:02:56
(UTC+00:00)

Cosmos 1975 Rocket - Pass Details

Date: 18 September 2020
Orbit: 603 x 634 km, 82.5° (Epoch: 24 October)

Event Time Altitude Azimuth Distance (km) Brightness Sun altitude
Rises 19:05:53 0° 344° (NNW) 2,880 7.0 -15.8°
Reaches altitude 10° 19:08:12 10° 337° (NNW) 1,967 6.2 -16.2°
Maximum altitude 19:12:15 39° 268° (W) 907 4.4 -16.9°
Drops below altitude 10° 19:16:15 10° 199° (SSW) 1,944 5.6 -17.5°
Sets 19:18:33 0° 192° (SSW) 2,842 6.4 -17.9°
